Location: K�ln
(50.9455°N, 6.9544°E)
Time: 03:03:53
(UTC+01:00)

N. Korean satellite - Visible Passes

Search period start: 22 November 2017 00:00
Search period end: 02 December 2017 00:00
Orbit: 460 x 514 km, 97.2° (Epoch: 21 November)

Date Brightness Start Highest point End Pass type
(mag) Time Alt. Az. Time Alt. Az. Time Alt. Az.
22 Nov 9.9 06:19:02 10° NE 06:21:11 15° E 06:23:20 10° SE visible
22 Nov 6.8 18:32:16 10° S 18:35:47 68° WSW 18:39:24 10° NNW visible
23 Nov 6.5 18:08:48 10° SSE 18:12:18 63° ENE 18:15:54 10° N visible
23 Nov 10.0 19:44:49 10° WSW 19:46:16 12° W 19:47:44 10° WNW visible
24 Nov 8.1 07:04:27 10° NNE 07:08:02 43° E 07:11:39 10° S visible
24 Nov 7.1 17:45:38 10° SE 17:48:54 35° ENE 17:52:13 10° N visible
24 Nov 9.2 19:19:47 10° SW 19:22:31 21° W 19:25:20 10° NW visible
25 Nov 9.3 06:41:17 10° NE 06:44:26 25° E 06:47:34 10° SSE visible
25 Nov 7.8 17:22:49 10° ESE 17:25:32 21° ENE 17:28:20 10° NNE visible
25 Nov 8.1 18:55:33 10° SSW 18:58:52 36° W 19:02:16 10° NNW visible
26 Nov 9.9 06:18:33 10° NE 06:20:44 15° E 06:22:54 10° SE visible
26 Nov 6.8 18:31:44 10° S 18:35:17 69° WSW 18:38:57 10° NNW visible
27 Nov 6.5 18:08:14 10° SSE 18:11:47 63° ENE 18:15:25 10° N visible
27 Nov 10.0 19:44:12 10° WSW 19:45:44 12° W 19:47:18 10° WNW visible
28 Nov 8.1 07:03:56 10° NNE 07:07:33 43° E 07:11:09 10° S visible
28 Nov 7.2 17:45:04 10° SE 17:48:22 35° ENE 17:51:44 10° N visible
28 Nov 9.2 19:19:11 10° SW 19:21:59 21° W 19:24:52 10° NW visible
29 Nov 9.3 06:40:45 10° NE 06:43:54 25° E 06:47:02 10° SSE visible
29 Nov 7.8 17:22:13 10° ESE 17:25:00 21° ENE 17:27:50 10° NNE visible
29 Nov 8.1 18:54:57 10° SSW 18:58:19 37° W 19:01:46 10° NNW visible
30 Nov 9.9 06:18:00 10° NE 06:20:11 15° E 06:22:20 10° SE visible
30 Nov 6.8 18:31:07 10° S 18:34:43 70° WSW 18:38:25 10° NNW visible
01 Dec 6.9 07:26:45 10° NNE 07:30:33 78° ESE 07:34:18 10° S visible
01 Dec 6.5 18:07:36 10° SSE 18:11:11 63° ENE 18:14:52 10° N visible
01 Dec 10.0 19:43:30 10° WSW 19:45:09 13° W 19:46:49 10° WNW visible
